Time,TemperatureF,DewpointF,PressureIn,WindDirection,WindDirectionDegrees,WindSpeedMPH,WindSpeedGustMPH,Humidity,HourlyPrecipIn,Conditions,Clouds,dailyrainin,SoftwareType,DateUTC
2013-03-08 00:00:00,36.8,26.1,30.09,WNW,295,2.0,2.0,65,0.00,,,0.00,Wunderground v.1.15,2013-03-08 07:00:00,
2013-03-08 00:30:00,36.3,26.0,30.11,West,272,1.0,1.0,66,0.00,,,0.00,Wunderground v.1.15,2013-03-08 07:30:00,
2013-03-08 01:00:00,36.0,25.7,30.10,West,277,1.0,1.0,66,0.00,,,0.00,Wunderground v.1.15,2013-03-08 08:00:00,
2013-03-08 01:30:00,35.5,25.6,30.07,West,281,2.0,2.0,67,0.00,,,0.00,Wunderground v.1.15,2013-03-08 08:30:00,
2013-03-08 02:00:00,34.4,24.9,30.07,WNW,282,1.0,1.0,68,0.00,,,0.00,Wunderground v.1.15,2013-03-08 09:00:00,
2013-03-08 02:30:00,33.2,24.5,30.06,West,273,0.0,0.0,70,0.00,,,0.00,Wunderground v.1.15,2013-03-08 09:30:00,
2013-03-08 03:00:00,32.1,23.4,30.05,West,276,0.0,0.0,70,0.00,,,0.00,Wunderground v.1.15,2013-03-08 10:00:00,
2013-03-08 03:30:00,29.8,22.8,30.05,SE,136,1.0,1.0,75,0.00,,,0.00,Wunderground v.1.15,2013-03-08 10:30:00,
2013-03-08 04:00:00,29.5,22.9,30.04,SSE,157,0.0,2.0,76,0.00,,,0.00,Wunderground v.1.15,2013-03-08 11:00:00,
2013-03-08 04:30:00,29.0,23.3,30.04,South,171,0.0,0.0,79,0.00,,,0.00,Wunderground v.1.15,2013-03-08 11:30:00,
2013-03-08 05:00:00,29.4,24.0,30.03,South,185,0.0,0.0,80,0.00,,,0.00,Wunderground v.1.15,2013-03-08 12:00:00,
2013-03-08 05:30:00,28.1,22.4,30.03,South,185,0.0,0.0,79,0.00,,,0.00,Wunderground v.1.15,2013-03-08 12:30:00,
2013-03-08 06:00:00,27.8,22.4,30.03,South,185,0.0,0.0,80,0.00,,,0.00,Wunderground v.1.15,2013-03-08 13:00:00,
2013-03-08 06:30:00,27.2,21.8,30.04,South,185,0.0,0.0,80,0.00,,,0.00,Wunderground v.1.15,2013-03-08 13:30:00,
2013-03-08 07:00:00,27.5,22.1,30.05,South,183,0.0,0.0,80,0.00,,,0.00,Wunderground v.1.15,2013-03-08 14:00:00,
2013-03-08 07:30:00,29.0,24.2,30.05,South,183,0.0,0.0,82,0.00,,,0.00,Wunderground v.1.15,2013-03-08 14:30:00,
2013-03-08 08:00:00,29.5,24.4,30.05,SE,133,0.0,0.0,81,0.00,,,0.00,Wunderground v.1.15,2013-03-08 15:00:00,
2013-03-08 08:30:00,33.1,26.4,30.06,SSW,193,4.0,5.0,76,0.00,,,0.00,Wunderground v.1.15,2013-03-08 15:30:00,
2013-03-08 09:00:00,36.0,26.8,30.04,SSE,151,3.0,3.0,69,0.00,,,0.00,Wunderground v.1.15,2013-03-08 16:00:00,
2013-03-08 09:30:00,37.9,27.2,30.04,South,178,3.0,3.0,65,0.00,,,0.00,Wunderground v.1.15,2013-03-08 16:30:00,
2013-03-08 10:00:00,38.5,27.0,30.03,SE,131,4.0,6.0,63,0.00,,,0.00,Wunderground v.1.15,2013-03-08 17:00:00,
2013-03-08 10:30:00,38.0,26.9,30.02,ESE,103,5.0,5.0,64,0.00,,,0.00,Wunderground v.1.15,2013-03-08 17:30:00,
2013-03-08 11:00:00,37.9,26.4,30.00,ESE,104,3.0,3.0,63,0.00,,,0.00,Wunderground v.1.15,2013-03-08 18:00:00,
2013-03-08 11:30:00,38.2,26.7,29.99,ESE,118,3.0,3.0,63,0.00,,,0.00,Wunderground v.1.15,2013-03-08 18:30:00,
2013-03-08 12:00:00,38.5,26.6,29.97,SSE,154,3.0,6.0,62,0.00,,,0.00,Wunderground v.1.15,2013-03-08 19:00:00,
2013-03-08 12:30:00,38.9,27.0,29.95,East,87,3.0,3.0,62,0.00,,,0.00,Wunderground v.1.15,2013-03-08 19:30:00,
2013-03-08 13:00:00,40.3,26.3,29.94,SE,127,4.0,4.0,57,0.00,,,0.00,Wunderground v.1.15,2013-03-08 20:00:00,
2013-03-08 13:30:00,41.2,25.8,29.92,East,99,6.0,6.0,54,0.00,,,0.00,Wunderground v.1.15,2013-03-08 20:30:00,
2013-03-08 14:00:00,42.1,26.2,29.89,SSE,151,4.0,4.0,53,0.00,,,0.00,Wunderground v.1.15,2013-03-08 21:00:00,
2013-03-08 14:30:00,41.3,25.9,29.88,ESE,110,3.0,3.0,54,0.00,,,0.00,Wunderground v.1.15,2013-03-08 21:30:00,
2013-03-08 15:00:00,41.6,25.7,29.88,ESE,102,4.0,6.0,53,0.00,,,0.00,Wunderground v.1.15,2013-03-08 22:00:00,
2013-03-08 15:30:00,41.5,26.1,29.87,East,83,5.0,5.0,54,0.00,,,0.00,Wunderground v.1.15,2013-03-08 22:30:00,
2013-03-08 16:00:00,41.2,26.2,29.86,East,86,5.0,5.0,55,0.00,,,0.00,Wunderground v.1.15,2013-03-08 23:00:00,
2013-03-08 16:30:00,40.6,26.1,29.86,SE,132,3.0,3.0,56,0.00,,,0.00,Wunderground v.1.15,2013-03-08 23:30:00,
2013-03-08 17:00:00,40.1,26.1,29.86,SE,136,3.0,5.0,57,0.00,,,0.00,Wunderground v.1.15,2013-03-09 00:00:00,
2013-03-08 17:30:00,39.2,25.6,29.87,ESE,115,4.0,5.0,58,0.00,,,0.00,Wunderground v.1.15,2013-03-09 00:30:00,
2013-03-08 18:00:00,37.0,25.2,29.86,ESE,108,4.0,4.0,62,0.00,,,0.00,Wunderground v.1.15,2013-03-09 01:00:00,
2013-03-08 18:30:00,34.7,24.5,29.87,ESE,108,2.0,2.0,66,0.00,,,0.00,Wunderground v.1.15,2013-03-09 01:30:00,
2013-03-08 19:00:00,33.2,24.5,29.87,ESE,112,3.0,3.0,70,0.00,,,0.00,Wunderground v.1.15,2013-03-09 02:00:00,
2013-03-08 19:30:00,32.4,24.4,29.88,SE,145,1.0,1.0,72,0.00,,,0.00,Wunderground v.1.15,2013-03-09 02:30:00,
2013-03-08 20:00:00,32.1,24.7,29.89,SE,146,0.0,0.0,74,0.00,,,0.00,Wunderground v.1.15,2013-03-09 03:00:00,
2013-03-08 20:30:00,31.5,24.5,29.88,SSE,147,0.0,0.0,75,0.00,,,0.00,Wunderground v.1.15,2013-03-09 03:30:00,
2013-03-08 21:00:00,30.4,23.7,29.88,SSE,149,0.0,0.0,76,0.00,,,0.00,Wunderground v.1.15,2013-03-09 04:00:00,
2013-03-08 21:30:00,29.8,23.5,29.86,East,94,1.0,2.0,77,0.00,,,0.00,Wunderground v.1.15,2013-03-09 04:30:00,
2013-03-08 22:00:00,28.5,22.8,29.87,East,85,0.0,0.0,79,0.00,,,0.00,Wunderground v.1.15,2013-03-09 05:00:00,
2013-03-08 22:30:00,27.6,22.8,29.87,ESE,115,0.0,0.0,82,0.00,,,0.00,Wunderground v.1.15,2013-03-09 05:30:00,
2013-03-08 23:00:00,26.9,23.0,29.87,SE,127,1.0,1.0,85,0.00,,,0.00,Wunderground v.1.15,2013-03-09 06:00:00,
2013-03-08 23:30:00,26.9,23.3,29.87,SE,127,0.0,0.0,86,0.00,,,0.00,Wunderground v.1.15,2013-03-09 06:30:00,